Los Alamitos, CA

8:51 AM PDT on October 18, 2017 (GMT -0700)
Los Alamitos Army Air Field

Weather History for KSLI - December, 2012

Change the Weather History Date:

Monday, December 24, 2012

  Actual Average Record
Temperature  
Mean Temperature 56 °F -  
Max Temperature 63 °F 66 °F 75 °F (2013)
Min Temperature 50 °F 47 °F 34 °F (2011)
Degree Days  
Heating Degree Days 8    
Growing Degree Days 6 (Base 50)    
Moisture  
Dew Point 55 °F    
Average Humidity 97    
Maximum Humidity 100    
Minimum Humidity 74    
Precipitation  
Precipitation 1.08 in - - ()
Sea Level Pressure  
Sea Level Pressure 30.07 in    
Wind  
Wind Speed 6 mph (ENE)    
Max Wind Speed 14 mph    
Max Gust Speed -    
Visibility 5 miles    
Events Rain    
Averages and records for this station are not official NWS values.
T = Trace of Precipitation, MM = Missing Value Source: NWS Daily Summary

Daily Weather History Graph

Daily Weather History Graph

Search for Another Location

Airport or City:

Trip Planner

Search our weather history database for the weather conditions in past years. The results will help you decide how hot, cold, wet, or windy it might be!

Date:

Astronomy

Dec. 24, 2012 Rise Set
Actual Time 6:54 AM PST 4:49 PM PST
Civil Twilight 6:27 AM PST 5:17 PM PST
Nautical Twilight 5:55 AM PST 5:48 PM PST
Astronomical Twilight 5:25 AM PST 6:18 PM PST
Moon 2:16 PM PST (12/24) 3:41 AM PST (12/24)
Length of Visible Light 10h 50m
Length of Day
9h 54m
Waxing Gibbous, 89% of the Moon is Illuminated
Dec 24
Waxing Gibbous
Dec 28
Full
Jan 4
Last Quarter
Jan 11
New
Jan 18
First Quarter

Hourly Weather History & Observations

Time (PST) Temp. Dew Point Humidity Pressure Visibility Wind Dir Wind Speed Gust Speed Precip Events Conditions
12:58 AM 55.9 °F 54.5 °F 95% 30.13 in 10.0 mi ESE 3.5 mph - N/A   Overcast
1:33 AM 55.4 °F 55.4 °F 100% 30.12 in 10.0 mi East 4.6 mph - N/A   Overcast
1:58 AM 56.1 °F 54.5 °F 94% 30.13 in 10.0 mi East 2.3 mph - N/A   Overcast
2:40 AM 55.4 °F 55.4 °F 100% 30.11 in 8.0 mi ESE 5.8 mph - N/A   Overcast
2:44 AM 55.4 °F 55.4 °F 100% 30.11 in 6.0 mi ESE 4.6 mph - N/A Rain Light Rain
2:49 AM 55.4 °F 55.4 °F 100% 30.11 in 4.0 mi ESE 5.8 mph - N/A   Light Drizzle
2:54 AM 55.4 °F 55.4 °F 100% 30.11 in 4.0 mi East 4.6 mph - N/A   Light Drizzle
2:58 AM 55.4 °F 55.4 °F 100% 30.12 in 4.0 mi East 4.6 mph - 0.00 in   Light Drizzle
3:08 AM 55.4 °F 55.4 °F 100% 30.11 in 8.0 mi East 4.6 mph - N/A   Light Drizzle
3:18 AM 55.4 °F 55.4 °F 100% 30.11 in 3.0 mi ENE 5.8 mph - N/A Rain Light Rain
3:33 AM 55.4 °F 55.4 °F 100% 30.09 in 4.0 mi ENE 4.6 mph - N/A Rain Light Rain
3:38 AM 55.4 °F 55.4 °F 100% 30.09 in 4.0 mi East 6.9 mph - N/A Rain Light Rain
3:43 AM 55.4 °F 55.4 °F 100% 30.09 in 4.0 mi East 5.8 mph - N/A Rain Light Rain
3:53 AM 55.4 °F 55.4 °F 100% 30.09 in 7.0 mi East 5.8 mph - N/A Rain Light Rain
3:58 AM 54.9 °F 54.9 °F 100% 30.10 in 4.0 mi ENE 6.9 mph - 0.03 in Rain Light Rain
4:03 AM 55.4 °F 55.4 °F 100% 30.09 in 2.5 mi ENE 6.9 mph - N/A Rain Heavy Rain
4:38 AM 55.4 °F 55.4 °F 100% 30.08 in 3.0 mi Variable 6.9 mph - N/A Rain Rain
4:43 AM 53.6 °F 53.6 °F 100% 30.07 in 2.5 mi NW 10.4 mph - N/A Rain Heavy Rain
4:48 AM 55.4 °F 55.4 °F 100% 30.08 in 1.8 mi WNW 8.1 mph - N/A Rain Heavy Rain
4:53 AM 55.4 °F 55.4 °F 100% 30.07 in 1.8 mi East 9.2 mph - N/A Rain Heavy Rain
4:58 AM 55.4 °F 55.4 °F 100% 30.07 in 2.5 mi East 9.2 mph - 0.35 in Rain Rain
5:18 AM 55.4 °F 55.4 °F 100% 30.07 in 2.5 mi Variable 3.5 mph - N/A Rain Rain
5:28 AM 53.6 °F 53.6 °F 100% 30.07 in 1.8 mi NNE 2.3 mph - N/A Rain Heavy Rain
5:43 AM 55.4 °F 55.4 °F 100% 30.06 in 2.0 mi ENE 8.1 mph - N/A Rain Rain
5:58 AM 54.1 °F 54.1 °F 100% 30.07 in 2.0 mi ENE 5.8 mph - 0.37 in Rain Heavy Rain
6:03 AM 53.6 °F 53.6 °F 100% 30.06 in 2.0 mi East 8.1 mph - N/A Rain Heavy Rain
6:13 AM 53.6 °F 53.6 °F 100% 30.06 in 2.5 mi East 5.8 mph - N/A Rain Light Rain
6:16 AM 53.6 °F 53.6 °F 100% 30.06 in 2.5 mi Variable 5.8 mph - N/A   Overcast
6:18 AM 53.6 °F 53.6 °F 100% 30.06 in 2.5 mi North 5.8 mph - N/A Rain Rain
6:23 AM 53.6 °F 53.6 °F 100% 30.07 in 2.5 mi NNW 13.8 mph - N/A Rain Rain
6:33 AM 53.6 °F 53.6 °F 100% 30.07 in 1.8 mi NNE 11.5 mph - N/A Rain Heavy Rain
6:48 AM 53.6 °F 53.6 °F 100% 30.08 in 2.0 mi NNE 6.9 mph - N/A Rain Heavy Rain
6:58 AM 53.6 °F 53.6 °F 100% 30.08 in 3.0 mi ENE 10.4 mph - 0.31 in Rain Light Rain
7:03 AM 53.6 °F 53.6 °F 100% 30.07 in 3.0 mi ENE 8.1 mph - N/A Rain Light Rain
7:08 AM 53.6 °F 53.6 °F 100% 30.06 in 3.0 mi ENE 9.2 mph - N/A Rain Light Rain
7:13 AM 53.6 °F 53.6 °F 100% 30.06 in 3.0 mi ENE 8.1 mph - N/A Rain Light Rain
7:18 AM 53.6 °F 53.6 °F 100% 30.06 in 3.0 mi ENE 9.2 mph - N/A Rain Light Rain
7:23 AM 53.6 °F 53.6 °F 100% 30.06 in 3.0 mi East 8.1 mph - N/A Rain Light Rain
7:28 AM 53.6 °F 53.6 °F 100% 30.06 in 2.5 mi East 8.1 mph - N/A Rain Light Rain
7:31 AM 53.6 °F 53.6 °F 100% 30.06 in 2.5 mi East 8.1 mph - N/A   Overcast
7:36 AM 53.6 °F 53.6 °F 100% 30.06 in 3.0 mi East 8.1 mph - N/A   Overcast
7:46 AM 53.6 °F 53.6 °F 100% 30.06 in 3.0 mi East 8.1 mph - N/A   Overcast
7:51 AM 55.4 °F 55.4 °F 100% 30.07 in 3.0 mi East 8.1 mph - N/A   Overcast
7:58 AM 54.5 °F 54.5 °F 100% 30.07 in 5.0 mi East 9.2 mph - 0.02 in   Overcast
8:18 AM 55.4 °F 55.4 °F 100% 30.08 in 5.0 mi ENE 5.8 mph - N/A   Overcast
8:28 AM 55.4 °F 55.4 °F 100% 30.08 in 5.0 mi NE 5.8 mph - N/A   Overcast
8:33 AM 55.4 °F 55.4 °F 100% 30.08 in 5.0 mi NE 6.9 mph - N/A   Overcast
8:38 AM 55.4 °F 55.4 °F 100% 30.08 in 5.0 mi ENE 8.1 mph - N/A   Overcast
8:53 AM 55.4 °F 55.4 °F 100% 30.09 in 6.0 mi ENE 9.2 mph - N/A   Overcast
8:58 AM 55.0 °F 55.0 °F 100% 30.09 in 6.0 mi ENE 8.1 mph - N/A   Overcast
9:03 AM 55.4 °F 55.4 °F 100% 30.09 in 6.0 mi ENE 9.2 mph - N/A   Overcast
9:53 AM 57.2 °F 57.2 °F 100% 30.09 in 4.0 mi ENE 8.1 mph - N/A   Overcast
9:58 AM 56.5 °F 56.5 °F 100% 30.10 in 4.0 mi ENE 8.1 mph - N/A   Overcast
9:59 AM 57.2 °F 57.2 °F 100% 30.09 in 4.0 mi ENE 8.1 mph - N/A   Overcast
10:14 AM 57.2 °F 57.2 °F 100% 30.09 in 5.0 mi ENE 5.8 mph - N/A   Overcast
10:50 AM 59.0 °F 59.0 °F 100% 30.08 in 4.0 mi ENE 2.3 mph - N/A   Light Drizzle
10:58 AM 59.4 °F 59.4 °F 100% 30.09 in 4.0 mi Variable 1.2 mph - 0.00 in   Light Drizzle
11:01 AM 59.0 °F 59.0 °F 100% 30.08 in 4.0 mi East 1.2 mph - N/A   Overcast
11:06 AM 59.0 °F 59.0 °F 100% 30.08 in 6.0 mi Calm Calm - N/A   Overcast
11:09 AM 59.0 °F 59.0 °F 100% 30.08 in 6.0 mi Calm Calm - N/A Rain Light Rain
11:10 AM 59.0 °F 59.0 °F 100% 30.08 in 6.0 mi NE 1.2 mph - N/A   Overcast
11:13 AM 59.0 °F 59.0 °F 100% 30.07 in 6.0 mi NE 1.2 mph - N/A Rain Light Rain
11:38 AM 60.8 °F 60.8 °F 100% 30.06 in 7.0 mi NW 2.3 mph - N/A   Mostly Cloudy
11:43 AM 60.8 °F 59.0 °F 94% 30.06 in 7.0 mi Variable 2.3 mph - N/A   Mostly Cloudy
11:53 AM 62.6 °F 57.2 °F 82% 30.06 in 7.0 mi West 2.3 mph - N/A   Mostly Cloudy
11:58 AM 61.7 °F 57.7 °F 87% 30.06 in 7.0 mi Variable 2.3 mph - 0.00 in   Mostly Cloudy
12:28 PM 62.6 °F 55.4 °F 77% 30.04 in 7.0 mi WSW 5.8 mph - N/A   Mostly Cloudy
12:33 PM 62.6 °F 55.4 °F 77% 30.03 in 10.0 mi WSW 6.9 mph - N/A   Mostly Cloudy
12:43 PM 62.6 °F 55.4 °F 77% 30.03 in 10.0 mi SW 5.8 mph - N/A   Mostly Cloudy
12:48 PM 60.8 °F 55.4 °F 82% 30.03 in 10.0 mi SW 5.8 mph - N/A   Overcast
12:53 PM 62.6 °F 55.4 °F 77% 30.03 in 10.0 mi SW 4.6 mph - N/A   Mostly Cloudy
12:58 PM 61.7 °F 55.4 °F 80% 30.03 in 10.0 mi SW 8.1 mph - N/A   Mostly Cloudy
1:03 PM 62.6 °F 57.2 °F 82% 30.02 in 10.0 mi SW 8.1 mph - N/A   Mostly Cloudy
1:58 PM 62.2 °F 53.8 °F 74% 30.01 in 10.0 mi WSW 4.6 mph - N/A   Mostly Cloudy
2:58 PM 63.1 °F 55.0 °F 75% 30.01 in 10.0 mi SW 5.8 mph - N/A   Scattered Clouds
3:58 PM 62.1 °F 54.7 °F 77% 30.01 in 10.0 mi West 5.8 mph - N/A   Clear
4:58 PM 59.7 °F 54.0 °F 81% 30.01 in 10.0 mi WNW 8.1 mph - N/A   Clear
5:58 PM 56.8 °F 54.9 °F 93% 30.04 in 10.0 mi WNW 5.8 mph - N/A   Clear
6:58 PM 55.2 °F 55.2 °F 100% 30.05 in 10.0 mi East 2.3 mph - N/A   Clear
7:58 PM 53.2 °F 53.2 °F 100% 30.05 in 10.0 mi East 4.6 mph - N/A   Clear
8:58 PM 51.6 °F 51.6 °F 100% 30.07 in 7.0 mi SW 3.5 mph - N/A   Clear
9:58 PM 50.2 °F 50.2 °F 100% 30.09 in 10.0 mi Calm Calm - N/A   Clear
10:33 PM 50.0 °F 50.0 °F 100% 30.09 in 2.0 mi ENE 3.5 mph - N/A   Clear
10:38 PM 50.0 °F 50.0 °F 100% 30.08 in 1.8 mi North 1.2 mph - N/A   Clear
10:43 PM 50.0 °F 50.0 °F 100% 30.09 in 4.0 mi ENE 2.3 mph - N/A   Clear
10:58 PM 50.4 °F 50.4 °F 100% 30.09 in 4.0 mi NE 4.6 mph - N/A   Clear
11:45 PM 50.0 °F 50.0 °F 100% 30.08 in 6.0 mi NE 3.5 mph - N/A   Scattered Clouds
11:50 PM 51.8 °F 51.8 °F 100% 30.08 in 6.0 mi NNE 1.2 mph - N/A   Mostly Cloudy
11:58 PM 50.7 °F 50.7 °F 100% 30.09 in 4.0 mi Calm Calm - N/A   Mostly Cloudy